Regional Weather Roundup
Issued by NWS Wakefield, VA

Home | Current Version | Previous Version | Text Only | Print | Product List | Glossary Off
Versions: 1 2 3 4 5 6 7 8 9 10 11 12 13 14 15 16 17 18 19 20 21 22 23 24 25 26 27 28 29 30 31 32 33 34 35 36 37 38 39 40 41 42 43 44 45 46 47 48 49 50

000
ASUS41 KAKQ 301310
RWRAKQ

REGIONAL WEATHER ROUNDUP
NATIONAL WEATHER SERVICE WAKEFIELD VA
900 AM EDT WED JUL 30 2014

Note: "fair" indicates few or no clouds below 12,000 feet with no
significant weather and/or obstructions to visibility. * = Denotes
station may not report precipitation (e.g., rain,snow,etc.),
thunder or fog.

VAZ042-051-052>054-056-301400-
NORTHERN VIRGINIA

CITY           SKY/WX    TMP DP  RH WIND       PRES   REMARKS
WASH NATIONAL  SUNNY     70  52  52 N7        30.09R
DULLES         SUNNY     64  52  64 CALM      30.09R
FORT BELVOIR   SUNNY     65  54  67 VRB3      30.09R
QUANTICO       SUNNY     64  53  67 NW6       30.10R
FREDERICKSBRG* SUNNY     66  55  69 CALM      30.08S
STAFFORD*      SUNNY     64  59  84 NW3       30.13R
WARRENTON      SUNNY     64  60  87 CALM      30.09S
CULPEPER*      SUNNY    N/A N/A N/A CALM      30.10R
MANASSAS*      SUNNY     61  57  88 CALM      30.10R
LEESBURG*      SUNNY     63  55  77 CALM      30.10R
WINCHESTER     SUNNY     63  54  72 SW5       30.09S
$$

VAZ048-049-060>072-079>083-301400-
CENTRAL AND SOUTH CENTRAL VIRGINIA...AND NORTH CENTRAL NORTH CAROLINA

CITY           SKY/WX    TMP DP  RH WIND       PRES   REMARKS
RICHMOND       MOSUNNY   71  51  49 N8        30.09R
CHESTERFIELD*  MOSUNNY   70  46  43 N5        30.11R
HANOVER        SUNNY     69  53  56 CALM      30.11R
TAPPAHANNOCK*  SUNNY     67  52  59 CALM      30.09S
CHARLOTTSVILLE SUNNY     64  56  75 CALM      30.10R
ORANGE*        SUNNY     66  55  68 CALM      30.11R
LOUISA*        SUNNY     66  55  68 CALM      30.09R
FARMVILLE*     SUNNY     66  54  63 CALM      30.08S
SOUTH HILL*    MOSUNNY   68  55  64 CALM      30.15R
ROANOKE RAPIDS NOT AVBL
RALEIGH        PTSUNNY   69  61  75 E6        30.08S
$$

VAZ088>098-301400-
SOUTHEAST VIRGINIA

CITY           SKY/WX    TMP DP  RH WIND       PRES   REMARKS
NORFOLK        SUNNY     73  54  51 N8        30.07R
VIRGINIA BEACH MOSUNNY   74  57  55 N12       30.06R
NORFOLK NAVAL  MOSUNNY   74  56  53 N8        30.08R
WEST POINT*    SUNNY     70  53  54 N3        30.10R
NEWPORT NEWS   MOSUNNY   75  55  49 N8        30.08R
LANGLEY AFB    CLOUDY    71  56  59 N6        30.07R
FORT EUSTIS    MOSUNNY   70  55  59 N6        30.06R
WILLIAMSBURG*  SUNNY     70  57  64 N3        30.09R
FRANKLIN*      PTSUNNY   68  57  68 CALM      30.09R
WAKEFIELD      CLOUDY    68  58  70 CALM      30.09R
$$

VAZ020-022-025-037-045-301400-
WESTERN AND SOUTHWEST VIRGINIA

CITY           SKY/WX    TMP DP  RH WIND       PRES   REMARKS
STAUNTON*      SUNNY     60  54  80 CALM      30.13S
HOT SPRINGS VA SUNNY     52  48  84 W6        30.18S
LYNCHBURG      SUNNY     66  56  70 CALM      30.12S
DANVILLE       CLOUDY    68  55  63 NE5       30.11R
MARTINSVILLE   SUNNY     67  56  67 N3        30.15R
ROANOKE        MOSUNNY   63  53  70 CALM      30.14S
BLACKSBURG     SUNNY     57  57 100 W3          N/A
DUBLIN*        SUNNY     60  56  86 CALM      30.17R
MARION*        SUNNY     57  53  85 SW5       30.19R
HILLSVILLE*    PTSUNNY   56  51  84 CALM      30.16R
RICHLANDS*     SUNNY     59  54  84 CALM      30.17R
WISE*          SUNNY     57  55  94 CALM      30.17S
ABINGDON*      SUNNY     59  54  83 E5        30.16S
$$

MDZ021>025-VAZ099-100-301400-
SOUTHERN MARYLAND AND THE DELMARVA PENINSULA

CITY           SKY/WX    TMP DP  RH WIND       PRES   REMARKS
PATUXENT RIVER SUNNY     69  57  65 NW8       30.07R
BAY BRIDGE APT   N/A     68  52  56 N3        30.07S
LEONARDTOWN    SUNNY     64  52  63 NW5       30.09S
DOVER          SUNNY     67  59  75 NW5       30.05R
GEORGETOWN     SUNNY     67  57  70 S6        30.07R
EASTON         SUNNY     68  61  77 NW3       30.09S
CAMBRIDGE      SUNNY     72  59  64 N6        30.06S
SALISBURY      SUNNY     72  56  57 N5        30.06
OCEAN CITY     SUNNY     69  57  65 N6        30.06R
WALLOPS ISLAND SUNNY     71  55  56 N9        30.07R
ACCOMACK*        N/A     70  59  68 NE3       30.07R
$$

NCZ012>017-030>032-301400-
EASTERN NORTH CAROLINA

CITY           SKY/WX    TMP DP  RH WIND       PRES   REMARKS
ELIZABETH CITY SUNNY     73  62  68 N7        30.07R
AHOSKIE*       PTSUNNY   64  58  81 N3        30.09R
EDENTON*       SUNNY     70  62  76 NE5       30.07R
CURRITUCK*     SUNNY     75  61  61 N5        30.07R
KILL DEVIL HLS SUNNY     76  61  59 N6        30.04S
MANTEO         NOT AVBL
CAPE HATTERAS  SUNNY     78  62  57 NE8       30.04R
GOLDSBORO      SUNNY     71  69  93 NE5       30.05R
WASHINGTON     SUNNY     69  64  85 NE3       30.07R
GREENVILLE     SUNNY     72  64  78 NE5       30.08S
NEW BERN       SUNNY     77  65  66 NE8       30.06R
WILMINGTON     SUNNY     77  70  79 NE7       30.02S
$$

VAZ048-301400-
ELSEWHERE

CITY           SKY/WX    TMP DP  RH WIND       PRES   REMARKS
HARRISBURG PA  SUNNY     63  54  72 NW7       30.07R
BALTIMORE      SUNNY     68  53  58 W6        30.07S
ANNAPOLIS      SUNNY     67  55  65 NW6       30.08R
ANDREWS AFB    SUNNY     68  53  57 NW7       30.08R
WILMINGTON DE  SUNNY     68  56  65 VRB5      30.07R
PHILADELPHIA   SUNNY     69  52  54 N5        30.06R
WILDWOOD NJ*   MOSUNNY   70  54  56 N7        30.06S
ATLANTIC CITY  SUNNY     69  55  60 N8        30.04S
HENDERSON NC   PTSUNNY   64  58  82 NE6       30.09S
GREENSBORO     PTSUNNY   66  59  78 N8        30.10R
ROCKY MOUNT    SUNNY     70  59  68 NE9       30.08R
FAYETTEVILLE   PTSUNNY   73  65  75 NE6       30.05R
CHARLOTTE      MOSUNNY   68  55  63 N10       30.09R
$$

VAZ100-301400-
MARINE

STATION/POSITION TIME  TEMP    WIND        PRES    WAVE   SWELL
                       AIR SEA DIR/SP/G            HT/PER HT/PER
                 (UTC) (F)     (DEG/KT/KT) (MB)    (FT/S) (FT/S)
44066 TX TWR #4  1300   72 74  170/  2/  4 1016.2R   3/ 7   3/ 7
CAPE MAY NJ      1300   71 76  360/  4/  6 1017.1R
LEWES DE         1300   68 70  330/  8/  9 1017.4R
15NM E FENWICK I 1300   69 73              1017.4R   2/ 8
OCEAN-CITY-INLET 1300   68 72   10/  7/  9 1017.4R
WACHAPREAGUE VA  1300   71 77  350/  2/  7 1017.9R
THOMAS POINT MD  1300   66 77  310/  7/  8 1018.9R
GOOSES REEF MD   1300   68     340/ 10/ 12 1018.7S
COVE POINT MD    1300   66     320/  6/  8 1018.1S
SOLOMONS ISLAND  1300      79                N/A
BISHOPS HEAD MD  1300   70 73  330/  5/ 10 1017.7R
PINEY POINT MD   1300          350/  6/  7   N/A
POTOMAC MD       1300   69     360/  6/  8 1017.6R
CAMBRIDGE MD     1300   68 78  320/  7/  8 1017.9S
LEWISETTA VA     1300   69 76  340/  5/  6 1018.1S
RAPPAHANNOCK LGT 1300          340/ 10/ 12 1018.5R
STINGRAY PT      1300   70     360/ 10/ 12 1018.7S
YORK RVR RNG VA  1300   70      10/ 11/ 12 1017.5S
YORKTOWN VA      1300   69 78  360/  6/  7 1017.9F
JAMESTOWN VA     1300   67      20/  6/  8   N/A
DOMINION TERM VA 1300   71      10/  7/  9 1018.1F
KIPTOPEKE VA     1300      80  350/  8/ 12   N/A
CHES BAY BRIDGE  1300   72 77  340/ 12/ 14 1017.5R
CAPE HENRY VA    1300   72     350/ 12/ 14 1016.7S
WILLOUBY STN VA  1300           10/  8/ 11 1017.4R
S CRANEY ISL VA  1300          330/  6/  8 1018.1F
CAPE HENRY BUOY  1300      77                N/A     2/ 8
1ST LANDING BUOY 1300   73     350/ 12/ 14 1017.6S
CAPE CHARLES BUO 1300      75                N/A     2/ 8
OFFSHORE WE BUOY 1300      77                N/A     2/ 8
64NM E OF VA BCH 1300   75 78  340/ 10/ 12 1017.1R   2/ 8   2/ 8
DUCK PIER NC     1300   74 75   20/ 10/ 11 1016.8S
44056 DUCK FRF   1300                        N/A     2/ 8
OREGON INLET NC  1300   76 78   20/  9/ 12 1017.4R
HATTERAS NC      1300   77 79   60/  8/ 10 1017.5R
DIAMOND SHLS NC  1300          VRB 12/ 16  1016.7R   3/ 6   2/ 6
CAPE LOOKOUT NC  1200   78      50/ 13/ 14 1016.3R
$$



USA.gov is the U.S. government's official web portal to all federal, state and local government web resources and services.